Temp
7 7 6 6 5 5 4 4 4 3 2 2 1 1 0 0 0 0 -0 -0 -1 -2 -2 -2 -2 -3 -3 -4 -4 -4 -4 -4 -4 -4 -4 -4 -5 -5 -5 -5 -5 -5 -5
6 6 6 6 5 4 4 4 3 2 2 1 0 -0 -0 -0 -1 -1 -1 -2 -2 -2 -2 -3 -4 -4 -4 -4 -4 -4 -5 -5 -5 -6 -5 -6 -6 -6 -6 -6 -6 -6 -6
6 6 5 5 5 4 4 3 2 2 1 0 -0 -0 -1 -1 -1 -2 -3 -4 -4 -4 -4 -4 -4 -4 -5 -5 -5 -5 -5 -6 -7 -7 -7 -7 -7 -7 -7 -7 -7 -7 -7
6 5 5 5 4 3 3 2 1 1 0 -0 -0 -0 -1 -2 -2 -3 -4 -4 -4 -4 -4 -5 -5 -5 -5 -5 -6 -6 -7 -8 -9 -9 -9 -9 -9 -8 -8 -8 -8 -8 -8
5 5 4 4 3 2 2 1 1 0 -0 -0 -0 -1 -2 -2 -3 -3 -4 -4 -4 -5 -5 -5 -5 -5 -6 -6 -7 -8 -9 -9 -10 -10 -10 -10 -9 -9 -9 -9 -9 -9 -8
4 4 3 3 2 1 1 1 0 0 -0 -0 -1 -1 -2 -3 -4 -4 -4 -4 -4 -5 -5 -5 -6 -6 -6 -7 -8 -8 -9 -10 -10 -11 -10 -10 -10 -9 -10 -9 -10 -10 -9
3 3 2 2 1 1 0 -0 -0 -0 -0 -1 -1 -2 -3 -4 -4 -4 -4 -5 -5 -5 -6 -6 -6 -7 -7 -8 -8 -8 -9 -9 -11 -11 -11 -10 -10 -10 -10 -10 -10 -10 -10
2 2 1 1 0 -0 -1 -1 -1 -1 -1 -1 -2 -3 -4 -4 -4 -5 -5 -6 -5 -6 -7 -7 -7 -8 -8 -8 -8 -9 -9 -10 -11 -11 -11 -11 -11 -11 -11 -11 -10 -10 -9
2 1 1 0 -0 -1 -1 -1 -2 -2 -2 -2 -3 -4 -4 -5 -5 -5 -5 -6 -6 -7 -7 -7 -8 -8 -8 -9 -9 -9 -9 -10 -11 -11 -11 -11 -11 -11 -11 -10 -10 -10 -9
1 2 1 -0 -2 -2 -2 -2 -3 -3 -3 -3 -3 -4 -5 -5 -5 -6 -6 -6 -7 -7 -7 -8 -9 -9 -9 -9 -9 -9 -10 -10 -11 -11 -11 -11 -11 -11 -11 -10 -10 -10 -10
1 1 -0 -1 -2 -2 -2 -2 -3 -3 -3 -4 -4 -5 -6 -6 -6 -6 -7 -7 -7 -8 -9 -9 -9 -9 -9 -9 -9 -9 -10 -11 -11 -12 -12 -12 -11 -11 -11 -11 -10 -10 -10
0 -0 -1 -2 -2 -2 -2 -3 -3 -3 -4 -4 -5 -6 -6 -6 -6 -7 -7 -7 -8 -8 -8 -9 -9 -10 -10 -9 -9 -10 -11 -11 -12 -12 -12 -12 -12 -11 -11 -11 -10 -10 -9
-1 -2 -2 -2 -3 -3 -3 -3 -4 -4 -5 -5 -6 -6 -6 -6 -7 -7 -7 -7 -8 -8 -9 -9 -9 -10 -9 -10 -10 -11 -11 -11 -12 -12 -12 -12 -12 -12 -12 -11 -10 -10 -9
-2 -2 -2 -3 -3 -4 -4 -5 -6 -6 -6 -6 -6 -6 -7 -7 -7 -7 -8 -8 -8 -8 -9 -9 -10 -10 -10 -10 -10 -11 -11 -11 -12 -12 -12 -12 -12 -12 -12 -12 -11 -10 -10
-2 -3 -3 -3 -4 -4 -6 -7 -7 -7 -7 -6 -6 -6 -7 -7 -7 -8 -8 -8 -8 -9 -9 -9 -10 -10 -10 -10 -10 -11 -11 -11 -12 -12 -12 -13 -13 -13 -12 -12 -11 -11 -10
-2 -3 -3 -4 -4 -5 -6 -7 -7 -7 -7 -7 -7 -7 -7 -8 -8 -8 -9 -9 -9 -9 -10 -10 -10 -10 -10 -10 -10 -10 -11 -11 -12 -12 -13 -13 -13 -13 -13 -12 -12 -11 -11
-3 -4 -4 -4 -5 -5 -6 -6 -6 -6 -7 -7 -7 -7 -8 -8 -8 -8 -9 -9 -10 -10 -10 -10 -10 -10 -10 -10 -10 -11 -11 -11 -12 -12 -13 -13 -13 -14 -13 -13 -12 -12 -12
-3 -3 -4 -4 -4 -5 -6 -6 -6 -6 -6 -6 -7 -7 -7 -8 -8 -8 -9 -9 -10 -10 -10 -10 -10 -10 -10 -10 -10 -11 -11 -11 -12 -13 -13 -13 -14 -14 -14 -13 -13 -13 -12
-3 -4 -4 -4 -4 -5 -5 -6 -6 -6 -6 -6 -6 -7 -7 -7 -8 -8 -8 -9 -9 -9 -10 -10 -9 -9 -9 -10 -10 -10 -11 -11 -12 -12 -13 -13 -13 -14 -14 -14 -13 -13 -13
-4 -4 -4 -4 -5 -5 -5 -6 -6 -7 -7 -6 -6 -7 -7 -7 -7 -7 -8 -8 -8 -9 -9 -9 -9 -9 -9 -9 -10 -10 -11 -12 -12 -12 -13 -13 -14 -14 -14 -14 -14 -14 -13
-4 -4 -4 -4 -5 -5 -6 -7 -7 -7 -7 -7 -7 -7 -7 -7 -7 -8 -8 -8 -8 -8 -8 -9 -9 -9 -9 -9 -10 -10 -11 -12 -12 -13 -13 -13 -13 -13 -14 -14 -14 -14 -14
-5 -5 -5 -5 -5 -6 -7 -7 -8 -7 -7 -7 -7 -7 -7 -7 -7 -7 -7 -8 -8 -8 -8 -9 -9 -9 -9 -9 -10 -10 -11 -12 -12 -12 -13 -12 -12 -13 -14 -14 -14 -14 -14
-7 -7 -6 -6 -6 -6 -7 -7 -7 -7 -8 -8 -8 -7 -7 -7 -7 -7 -7 -7 -7 -8 -8 -8 -8 -9 -9 -9 -10 -10 -11 -11 -12 -12 -12 -12 -12 -12 -13 -13 -14 -14 -13
-8 -8 -7 -7 -7 -7 -8 -8 -8 -8 -8 -8 -8 -7 -8 -8 -8 -8 -8 -8 -8 -7 -8 -8 -8 -8 -9 -9 -10 -10 -10 -11 -11 -11 -11 -12 -12 -12 -12 -12 -13 -14 -13
-9 -8 -8 -7 -8 -8 -9 -9 -9 -9 -9 -9 -9 -9 -9 -9 -9 -8 -8 -8 -8 -8 -8 -8 -8 -8 -9 -9 -10 -10 -10 -11 -11 -11 -11 -12 -12 -12 -12 -12 -12 -13 -13
-9 -9 -9 -9 -10 -10 -10 -11 -11 -11 -12 -12 -12 -11 -11 -11 -10 -10 -9 -8 -8 -8 -8 -8 -8 -8 -8 -9 -10 -10 -11 -10 -11 -11 -12 -12 -12 -12 -12 -12 -13 -13 -13
Height
1530 1534 1535 1535 1535 1538 1537 1536 1534 1533 1532 1531 1529 1527 1525 1523 1521 1518 1515 1512 1509 1507 1505 1504 1502 1501 1500 1499 1498 1497 1495 1493 1487 1483 1482 1479 1477 1475 1471 1468 1466 1463 1460
1530 1531 1531 1530 1533 1534 1533 1532 1531 1530 1528 1527 1525 1523 1521 1519 1514 1511 1508 1506 1504 1501 1500 1499 1499 1498 1496 1495 1494 1492 1489 1486 1483 1476 1474 1472 1471 1468 1463 1460 1458 1455 1453
1528 1529 1530 1530 1529 1530 1529 1529 1527 1526 1524 1523 1521 1519 1517 1512 1510 1507 1504 1501 1499 1497 1497 1496 1495 1494 1493 1491 1488 1486 1483 1480 1477 1473 1467 1466 1463 1461 1456 1454 1452 1450 1447
1526 1527 1528 1526 1526 1526 1525 1524 1523 1522 1520 1518 1516 1515 1511 1507 1505 1503 1500 1499 1496 1496 1495 1494 1492 1491 1488 1486 1483 1481 1478 1474 1472 1468 1463 1460 1457 1455 1452 1449 1446 1444 1441
1524 1525 1525 1523 1523 1522 1521 1520 1519 1517 1515 1514 1513 1509 1506 1503 1500 1498 1496 1495 1494 1493 1492 1491 1489 1486 1484 1480 1479 1476 1472 1469 1466 1462 1458 1455 1452 1450 1448 1445 1441 1437 1434
1523 1523 1522 1521 1519 1517 1517 1515 1514 1513 1511 1509 1506 1502 1500 1498 1496 1493 1491 1490 1489 1489 1488 1486 1484 1482 1480 1476 1473 1471 1469 1465 1461 1458 1454 1451 1448 1446 1443 1440 1436 1433 1428
1520 1521 1520 1518 1517 1514 1513 1512 1510 1508 1505 1504 1500 1496 1495 1493 1490 1488 1485 1485 1485 1485 1484 1482 1479 1479 1475 1472 1470 1467 1464 1460 1457 1454 1450 1447 1443 1441 1438 1434 1432 1429 1424
1518 1518 1517 1515 1514 1512 1509 1507 1505 1504 1501 1498 1494 1492 1489 1487 1484 1483 1482 1481 1481 1480 1479 1476 1475 1474 1469 1467 1465 1461 1457 1453 1450 1449 1446 1442 1438 1436 1434 1430 1426 1422 1418
1513 1514 1513 1511 1509 1508 1506 1503 1500 1496 1495 1494 1490 1486 1485 1482 1479 1478 1478 1478 1477 1475 1473 1472 1471 1469 1465 1463 1460 1455 1451 1448 1446 1444 1440 1436 1433 1431 1428 1425 1422 1419 1414
1510 1509 1507 1506 1504 1502 1500 1497 1494 1492 1490 1488 1484 1483 1479 1478 1476 1474 1474 1473 1472 1470 1468 1468 1466 1464 1461 1459 1455 1451 1446 1443 1440 1437 1434 1431 1429 1426 1424 1422 1419 1416 1412
1508 1503 1501 1501 1499 1497 1495 1492 1490 1488 1486 1482 1479 1477 1475 1473 1471 1471 1470 1469 1467 1465 1464 1463 1462 1459 1457 1454 1451 1447 1444 1440 1437 1434 1430 1428 1426 1423 1420 1418 1415 1413 1409
1502 1499 1497 1497 1494 1491 1488 1486 1486 1484 1480 1476 1473 1472 1470 1468 1467 1466 1465 1464 1463 1461 1459 1458 1457 1455 1453 1450 1447 1444 1441 1438 1435 1432 1429 1425 1423 1420 1417 1414 1411 1408 1405
1498 1495 1493 1493 1489 1486 1483 1480 1479 1478 1474 1472 1469 1467 1465 1464 1463 1462 1460 1459 1458 1456 1455 1453 1451 1450 1448 1445 1443 1441 1438 1436 1433 1430 1426 1423 1421 1417 1414 1411 1408 1405 1401
1494 1491 1490 1488 1485 1482 1478 1474 1472 1471 1469 1466 1464 1463 1461 1459 1458 1458 1455 1454 1452 1451 1450 1449 1447 1446 1444 1442 1440 1439 1436 1434 1431 1428 1424 1421 1418 1415 1411 1408 1405 1401 1398
1490 1488 1486 1483 1481 1477 1474 1471 1468 1466 1465 1462 1461 1459 1457 1454 1453 1452 1451 1450 1448 1447 1446 1444 1443 1442 1440 1439 1437 1436 1434 1432 1429 1426 1422 1418 1415 1412 1409 1406 1403 1400 1398
1486 1483 1481 1477 1474 1472 1468 1464 1462 1460 1457 1455 1454 1452 1450 1448 1447 1445 1443 1443 1442 1442 1440 1438 1437 1437 1436 1435 1433 1432 1430 1428 1426 1423 1419 1417 1414 1410 1407 1405 1402 1400 1396
1480 1477 1474 1471 1468 1466 1463 1460 1455 1451 1450 1448 1446 1444 1443 1441 1440 1438 1437 1436 1435 1436 1433 1432 1432 1432 1432 1431 1429 1428 1427 1425 1422 1420 1417 1414 1412 1409 1406 1404 1401 1399 1395
1474 1471 1468 1465 1462 1459 1456 1452 1449 1446 1442 1440 1439 1437 1435 1434 1432 1432 1431 1430 1429 1428 1427 1427 1426 1426 1426 1426 1425 1424 1423 1421 1419 1416 1414 1412 1410 1407 1405 1403 1400 1398 1395
1467 1463 1460 1457 1455 1452 1448 1444 1441 1438 1436 1433 1431 1430 1428 1427 1425 1424 1424 1422 1422 1421 1421 1420 1421 1421 1420 1420 1420 1419 1418 1416 1415 1413 1411 1409 1408 1406 1403 1402 1399 1397 1395
1459 1456 1452 1449 1446 1443 1440 1437 1434 1431 1429 1426 1424 1422 1422 1420 1418 1417 1416 1416 1415 1414 1414 1414 1414 1415 1415 1415 1415 1414 1413 1412 1411 1409 1408 1407 1405 1403 1402 1400 1398 1396 1394
1451 1447 1443 1441 1437 1434 1432 1431 1429 1425 1422 1420 1418 1416 1415 1413 1411 1410 1410 1408 1407 1407 1407 1407 1407 1408 1408 1409 1409 1409 1408 1407 1407 1406 1404 1403 1402 1401 1400 1399 1398 1396 1393
1442 1438 1434 1431 1427 1426 1425 1423 1422 1418 1416 1414 1411 1410 1408 1406 1404 1403 1402 1401 1401 1400 1400 1400 1400 1401 1402 1402 1403 1403 1403 1402 1402 1401 1400 1400 1399 1398 1398 1397 1396 1395 1392
1434 1429 1426 1422 1418 1418 1418 1417 1415 1412 1410 1408 1405 1403 1401 1399 1397 1395 1394 1393 1393 1392 1392 1392 1393 1393 1394 1395 1396 1397 1397 1397 1397 1397 1397 1396 1396 1396 1395 1395 1394 1393 1391
1427 1422 1418 1414 1413 1412 1412 1411 1409 1407 1405 1402 1399 1397 1395 1393 1392 1390 1389 1387 1386 1385 1385 1384 1385 1386 1387 1388 1389 1391 1392 1392 1392 1392 1393 1393 1393 1393 1393 1393 1392 1391 1390
1420 1416 1413 1410 1408 1406 1405 1404 1403 1401 1399 1396 1394 1392 1390 1388 1386 1385 1383 1381 1380 1379 1378 1377 1377 1378 1379 1381 1382 1383 1386 1387 1387 1388 1389 1389 1390 1390 1390 1391 1391 1391 1389
1416 1411 1408 1406 1405 1402 1401 1399 1397 1396 1394 1391 1389 1387 1385 1383 1381 1379 1377 1376 1374 1373 1372 1371 1371 1372 1373 1375 1377 1377 1379 1381 1382 1383 1384 1385 1386 1387 1387 1388 1388 1389 1388
Wind_Speed
18 13 6 6 6 11 9 11 13 13 14 15 18 19 18 19 19 20 20 19 18 18 19 22 22 14 14 13 16 20 23 24 29 31 30 30 28 29 30 33 40 40 38
14 8 12 7 7 10 10 12 13 14 15 16 17 18 18 18 19 22 24 22 21 23 24 17 16 12 13 18 19 19 20 22 25 32 34 34 30 28 30 33 35 33 31
7 1 2 7 9 10 12 13 14 15 16 18 18 18 20 24 26 26 20 17 18 11 10 12 13 17 17 17 20 24 28 31 29 27 33 33 29 28 28 30 28 27 27
4 7 9 9 10 11 13 15 15 16 17 18 17 20 20 23 28 21 18 13 14 12 12 12 14 15 19 21 25 30 26 25 25 25 29 30 28 29 26 26 27 27 27
8 7 7 9 10 10 13 15 18 19 20 18 19 22 24 28 21 21 11 12 13 13 13 13 14 17 22 24 22 25 23 26 28 31 26 28 30 28 28 28 29 32 32
5 5 7 10 12 13 15 16 17 18 19 20 21 25 28 25 22 25 21 19 18 17 14 16 16 16 18 20 20 22 25 28 29 30 29 30 29 29 27 27 28 31 34
5 5 7 11 13 14 15 16 17 19 19 19 24 26 28 21 24 24 20 14 16 15 13 16 16 14 20 22 25 28 28 27 21 24 27 27 26 25 29 31 34 33 33
4 8 9 11 15 16 16 17 17 18 19 21 24 26 22 21 23 20 14 13 16 12 15 18 17 15 22 25 26 29 30 25 19 19 23 25 26 28 29 25 26 28 27
6 12 11 14 17 16 17 17 21 24 22 20 23 20 19 21 21 14 15 17 18 16 20 19 13 17 23 24 27 30 28 24 13 18 25 24 20 20 20 22 25 25 28
9 15 16 15 16 17 18 19 20 24 14 20 22 22 25 18 17 18 19 19 21 20 17 10 16 17 21 24 28 27 25 20 23 21 17 17 18 19 17 18 19 20 22
13 18 16 14 16 17 18 19 18 19 20 25 26 25 18 19 23 20 19 22 22 17 16 16 13 20 23 25 24 21 19 21 18 18 22 18 19 18 18 17 17 19 23
19 17 16 14 18 17 19 19 18 20 22 25 26 21 19 13 15 20 20 20 18 18 18 18 14 20 21 18 17 15 15 16 16 20 19 18 21 19 18 17 17 17 18
16 14 14 15 19 24 22 19 18 21 25 25 18 19 19 18 19 20 21 21 19 19 18 17 15 15 18 15 15 15 17 18 18 23 18 20 18 19 19 18 17 16 16
15 14 16 17 20 24 27 23 16 17 19 22 21 19 18 16 18 19 21 20 17 17 18 17 18 21 11 14 15 14 16 17 18 20 21 19 16 19 20 17 17 18 17
14 15 17 20 18 24 26 23 23 21 21 24 23 22 26 30 27 22 20 21 17 19 23 25 25 16 14 16 15 14 15 15 17 18 22 18 17 18 18 15 15 17 16
18 21 20 22 23 25 22 26 28 25 23 22 24 27 29 28 24 21 24 26 25 23 24 25 21 15 14 17 17 14 14 15 17 21 15 17 17 18 15 13 16 15 17
22 24 26 24 26 28 25 27 30 30 26 26 25 26 26 24 22 21 19 23 23 22 23 22 19 13 16 16 17 14 14 16 20 16 17 15 16 17 13 12 15 15 16
26 30 25 25 28 30 30 29 29 30 30 27 26 26 24 24 23 20 18 17 21 22 23 23 20 16 17 17 16 14 17 20 19 15 18 10 14 17 14 12 12 14 14
32 28 28 28 29 30 32 32 29 28 29 30 28 26 23 23 22 21 19 21 21 23 22 23 22 19 19 20 18 18 20 21 17 12 12 12 12 14 12 14 11 10 10
33 33 33 30 31 34 33 29 28 30 31 33 31 30 27 25 25 23 23 21 22 21 20 20 22 21 22 22 21 21 21 19 12 12 14 16 10 14 8 11 13 11 11
35 36 36 35 34 35 26 27 29 28 29 30 30 28 28 28 26 24 25 26 25 24 23 22 23 22 20 22 20 21 20 18 16 15 15 13 11 11 7 8 10 14 9
36 38 38 38 32 29 27 22 22 22 23 25 26 26 24 23 27 26 26 25 24 23 22 23 25 24 22 22 21 20 19 18 16 16 14 11 10 7 6 7 8 12 11
34 33 33 35 26 26 23 23 25 25 26 27 26 24 22 21 21 25 25 24 25 26 25 23 23 25 24 24 23 22 21 20 19 16 13 11 10 8 8 6 6 9 10
35 35 32 33 26 22 20 20 20 20 19 20 20 20 18 20 20 20 19 19 21 23 22 23 25 25 24 23 23 23 22 19 19 17 14 12 10 9 8 6 5 7 7
33 30 25 20 14 17 22 20 21 23 24 23 19 17 19 18 15 17 20 21 19 19 21 21 21 23 25 22 22 22 21 19 16 14 11 11 10 10 8 7 6 4 5
21 16 12 14 16 15 18 19 17 16 16 16 16 17 19 19 20 19 18 17 18 18 18 18 18 19 22 19 19 20 22 20 16 14 13 12 11 10 9 8 7 5 5
Wind_Direction
203 205 259 297 279 249 266 269 271 275 280 284 292 295 300 299 303 302 294 294 296 288 282 287 287 268 268 278 283 293 300 298 293 297 299 302 302 303 294 292 292 291 293
209 270 296 321 247 268 274 276 275 278 285 288 295 300 301 301 286 283 283 281 284 284 290 287 283 281 291 294 304 300 291 288 295 299 297 302 306 301 301 301 300 294 293
252 75 282 244 258 272 273 273 274 282 282 290 297 301 299 289 293 301 305 305 296 305 292 288 290 296 298 297 285 286 286 293 294 297 294 296 303 301 304 303 301 299 296
179 222 243 264 266 266 270 277 286 286 286 291 302 301 287 292 303 307 286 303 307 301 290 294 299 300 286 291 294 298 307 299 302 301 297 298 303 303 304 305 305 306 306
214 236 259 267 270 275 279 282 283 285 292 299 299 290 288 301 300 290 271 278 291 285 296 297 291 291 299 299 303 312 303 305 307 311 303 300 301 306 305 308 302 302 301
236 263 270 277 286 292 290 291 296 293 291 291 289 286 293 300 291 285 268 275 289 269 289 291 290 302 300 307 302 298 303 308 306 303 303 302 303 305 300 301 306 309 307
248 292 295 295 301 303 299 295 292 290 292 290 288 291 306 296 292 287 265 270 287 291 291 289 286 292 286 290 290 298 305 308 294 295 297 302 305 303 302 299 300 300 296
309 309 315 305 297 301 302 300 298 296 291 294 291 298 292 296 295 292 273 291 289 285 278 273 283 291 284 291 303 310 314 316 309 303 296 296 295 295 299 300 301 301 299
306 302 295 296 299 302 300 296 289 288 282 289 292 286 299 280 287 283 282 284 293 281 271 284 288 288 287 297 306 313 317 322 315 292 291 299 303 306 304 306 304 306 303
297 299 294 301 301 297 296 295 298 304 312 290 281 291 301 285 279 282 282 283 293 291 294 282 282 289 292 300 309 313 316 321 319 325 334 332 323 318 312 306 310 309 305
285 281 298 292 294 295 299 297 301 295 293 284 290 300 292 273 274 280 283 289 299 286 281 282 280 291 293 302 306 311 321 326 328 332 332 326 325 319 315 315 308 300 299
276 293 302 300 295 291 283 279 294 291 280 282 294 293 299 297 275 280 282 289 293 293 290 286 273 273 294 306 315 324 334 335 333 325 328 333 324 321 320 320 322 322 317
293 303 299 292 292 306 310 297 280 287 284 298 299 298 299 291 287 287 284 286 283 289 297 297 290 296 315 326 333 334 326 327 326 322 331 323 326 325 323 318 315 320 321
296 303 304 297 301 297 302 303 295 279 292 296 292 290 285 281 293 288 282 282 269 285 299 296 296 307 302 312 318 316 312 315 312 321 312 323 326 329 324 327 329 337 336
303 296 292 294 293 287 300 300 303 301 278 276 277 274 280 286 290 277 271 261 262 282 284 281 288 295 296 297 300 300 305 308 305 304 315 330 328 324 326 332 341 338 336
283 296 304 302 298 298 301 303 307 307 301 292 283 278 282 285 287 288 273 263 271 276 279 278 278 282 281 291 300 301 301 305 296 307 321 321 324 327 333 345 346 338 338
299 298 301 305 306 304 302 304 305 309 304 300 295 293 292 285 285 290 289 264 269 273 278 281 285 274 278 282 291 293 292 292 294 308 305 316 320 329 339 344 339 338 337
283 292 294 297 294 298 297 302 304 301 298 301 303 300 294 288 286 286 284 279 264 263 270 272 280 272 272 278 287 279 275 283 292 295 308 320 324 328 335 334 335 338 339
294 291 288 293 290 290 293 297 298 298 297 295 301 302 299 293 289 280 274 268 269 265 266 272 271 277 272 274 281 278 282 291 295 304 319 318 316 317 326 336 330 338 341
287 281 281 283 282 283 291 292 291 294 297 290 292 298 300 291 285 283 275 274 271 271 269 261 263 268 270 272 274 276 282 288 290 296 292 296 304 306 325 329 342 338 344
293 288 288 280 271 273 288 285 286 289 293 295 296 296 298 288 285 281 275 276 277 275 276 271 267 264 267 270 268 273 278 273 275 274 279 289 291 308 333 327 333 332 330
297 294 290 286 268 291 301 303 299 302 298 296 297 299 301 294 286 287 285 280 277 273 269 266 268 266 267 267 266 272 276 271 276 275 278 284 294 300 298 314 325 319 330
308 304 302 291 284 298 294 298 302 302 302 301 301 301 301 298 298 294 293 291 285 282 281 275 263 260 262 262 264 267 272 271 273 272 271 279 282 282 283 287 299 314 331
309 312 301 292 282 287 290 300 304 306 305 307 315 306 308 307 303 301 297 294 293 291 291 287 277 263 259 257 262 262 266 271 263 265 268 265 267 269 275 284 274 302 330
311 312 305 304 290 288 300 295 294 297 298 297 301 311 307 306 315 314 307 300 298 296 290 288 284 274 260 259 262 263 261 265 264 262 259 254 255 261 265 267 275 289 313
334 328 315 308 305 299 298 305 310 315 311 316 316 313 305 294 296 296 304 304 298 300 299 290 283 278 261 261 263 262 255 257 260 258 260 256 252 252 251 249 259 262 282